Terminal Aerodrome Forecast
Issued by NWS

Home | Current Version | Previous Version | Text Only | Print | Product List | Glossary On
Versions: 1 2 3 4 5 6 7 8 9 10 11 12 13 14 15
738
FTUS42 KTAE 310713 AAB
TAFECP
TAF AMD
KECP 310713Z 3107/0106 25005KT 3SM BR SCT250
      TEMPO 3107/3111 1/2SM FG BKN001
     FM311500 25005KT P6SM SCT250
     FM311700 27006KT P6SM VCTS SCT040CB SCT250
     FM010000 24005KT P6SM SCT250=

USA.gov is the U.S. government's official web portal to all federal, state and local government web resources and services.